Notices

What's New in latest Release from April 7th, 2021:

- Updated Glossary, including Speed of Maximum Gust, and Total Hourly Precipitation

- Updated national and regional climate services offices contacts and prices information

- Addition of station inventory lists for 1981-2010, 1971-2000, and 1961-1990 Normals.

If you haven't already, please take our survey and provide feedback about our website: https://eccc.sondage-survey.ca/f/LanguageSelection.aspx?s=442ca660-fcf1-47c0-95a9-59707d6fd709

Hourly Data Report for November 28, 2019

MIRAMICHI RCS
NEW BRUNSWICK
Current Station Operator: ECCC - MSC

47°00'34.000" N
65°27'54.000" W
33.00 m
8100989
71744
ACQ

Download Data

Hourly Data (November 2019)
Hourly Data Report for November 28, 2019
TIME
LST
Temp Definition
°C
Dew Point Definition
°C
Rel Hum Definition
%
Precip. Amount Definition
mm

Wind Dir Definition
10's deg

Wind Spd Definition
km/h
Visibility Definition
km
Stn Press Definition
kPa
Hmdx Definition


Wind Chill Definition


Weather Definition


00:00 -2.1 -4.8 82 0.0 4 7   100.49   -5 LegendNANA
01:00 -2.4 -4.6 85 0.0 4 3   100.42   -4 LegendNANA
02:00 -2.3 -4.1 87 0.0 3 3   100.34   -3 LegendNANA
03:00 -1.7 -3.3 89 0.0 3 5   100.27   -4 LegendNANA
04:00 0.3 -0.5 94 0.0 6 17   100.13     LegendNANA
05:00 0.6 0.0 96 0.0 5 17   100.03     LegendNANA
06:00 0.1 -0.4 96 0.0 4 16   99.98     LegendNANA
07:00 0.2 -0.2 97 0.3 3 14   99.96     LegendNANA
08:00 0.4 0.0 97 0.5 2 13   99.99     LegendNANA
09:00 0.7 0.2 97 0.2 3 15   100.02     LegendNANA
10:00 1.0 0.5 96 0.2 3 17   100.04     LegendNANA
11:00 1.3 0.7 95 0.0 3 18   100.04     LegendNANA
12:00 1.7 0.9 94 0.0 3 19   100.03     LegendNANA
13:00 1.9 1.1 95 0.0 2 16   100.02     LegendNANA
14:00 2.4 1.0 90 0.0 2 17   100.08     LegendNANA
15:00 2.5 0.9 89 0.0 1 12   100.12     LegendNANA
16:00 2.7 0.6 86 0.0 36 13   100.24     LegendNANA
17:00 2.5 0.2 85 0.0 1 13   100.34     LegendNANA
18:00 2.6 -0.2 82 0.0 1 13   100.42     LegendNANA
19:00 2.5 -0.3 82 0.0 1 14   100.48     LegendNANA
20:00 2.6 -0.4 80 0.0 36 11   100.55     LegendNANA
21:00 2.5 -0.7 79 0.0 36 14   100.56     LegendNANA
22:00 2.4 -1.0 78 0.0 1 14   100.59     LegendNANA
23:00 2.0 -1.7 76 0.0 36 14   100.60     LegendNANA

Notes on Data Quality.

Legend

  • E = Estimated
  • M = Missing
  • NA = Not Available*
  • [empty] = Indicates an unobserved value
Date modified: